GFSNIL_prec_cloud_033.txt.gz
Cloud_Cover
50 25 59 94 60 68 95 100 6 5 5 5 5 5 5 62 93 54 15 96 82 90
5 43 100 60 14 82 59 5 5 5 5 5 5 5 5 38 78 96 98 100 75 74
65 100 62 5 42 99 28 7 5 5 5 5 5 5 5 53 21 66 67 64 89 53
90 100 44 14 97 60 5 5 5 5 5 5 5 5 5 5 21 36 78 100 45 91
100 37 15 62 87 5 5 5 5 5 5 5 7 5 55 95 100 78 83 98 81 100
100 99 74 29 15 6 5 5 5 5 5 6 16 74 83 99 84 92 95 96 59 98
85 53 57 88 64 9 6 9 8 5 39 47 83 96 100 100 100 96 88 97 49 21
96 98 94 95 99 45 77 92 5 66 70 99 100 100 100 74 98 67 15 15 5 40
100 100 100 99 100 100 98 56 100 97 99 100 94 39 21 24 5 5 5 5 5 43
100 100 100 100 100 100 100 100 100 100 100 100 100 80 99 80 5 5 18 53 59 36
100 100 100 100 100 100 100 100 100 100 100 100 95 100 38 5 3 5 62 92 86 79
100 100 100 100 100 100 100 100 100 100 100 100 100 54 5 5 5 22 75 95 86 68
100 100 100 100 100 100 100 100 100 100 100 99 98 5 5 5 5 62 92 93 79 100
100 100 100 98 100 100 100 100 100 100 89 98 78 91 87 5 5 58 92 82 90 100

GFSNIL_prec_cloud_036.txt.gz
Cloud_Cover
5 5 5 5 72 82 100 37 5 41 8 5 5 5 5 5 5 81 71 75 12 77
5 5 5 34 70 100 100 86 5 5 12 40 5 5 5 5 5 36 32 55 70 100
5 67 48 63 100 100 92 15 10 60 100 78 45 7 5 5 13 5 8 5 60 79
5 45 84 98 100 100 99 69 39 99 100 100 100 51 20 78 5 5 31 90 100 100
100 100 100 100 100 100 85 94 100 100 100 100 98 79 100 64 62 74 100 100 36 45
100 100 100 100 100 93 89 100 100 100 69 98 100 100 88 32 9 93 100 80 5 27
100 100 100 100 100 99 100 100 100 93 97 100 100 88 87 88 100 100 60 100 99 52
100 100 100 100 100 100 100 100 100 100 100 83 83 88 100 100 100 51 98 60 5 5
100 100 100 100 100 100 100 100 100 98 71 100 87 100 100 100 42 99 5 0 5 5
100 100 100 100 100 100 100 100 100 100 100 100 99 100 100 100 96 22 60 5 5 5
100 100 100 100 100 100 100 100 100 100 100 100 99 100 100 100 53 97 0 5 5 5
100 100 100 100 100 100 100 100 100 100 100 100 100 100 100 95 100 5 4 5 5 30
100 100 100 100 100 100 100 100 100 100 100 100 100 100 100 55 7 5 5 5 5 5
100 100 100 100 100 100 100 100 100 100 100 100 100 100 91 98 5 5 5 5 5 33

GFSNIL_prec_cloud_039.txt.gz
Cloud_Cover
5 0 4 5 43 56 80 100 60 100 100 85 84 45 34 54 80 74 8 5 43 94
10 5 42 84 84 70 100 100 100 99 100 100 47 71 98 75 80 84 100 99 34 98
88 40 66 97 74 98 94 100 100 100 79 100 48 100 96 100 99 100 96 36 6 80
6 27 100 100 99 100 100 100 100 100 100 90 88 100 36 98 91 86 42 81 97 96
69 92 100 100 98 100 100 100 100 97 97 98 70 100 72 81 100 100 100 100 79 75
100 100 100 80 100 100 100 100 100 99 100 97 40 100 87 90 100 100 100 100 100 100
100 99 100 89 98 100 90 94 86 100 100 91 99 100 100 100 100 100 100 100 100 99
100 100 88 100 69 100 99 79 98 95 100 100 100 100 100 100 100 98 95 99 100 100
100 100 100 100 100 100 100 100 100 100 100 100 69 100 100 100 96 39 99 100 83 15
100 49 100 100 100 100 100 100 100 100 100 100 100 100 100 100 100 100 100 100 76 7
100 100 100 100 100 100 100 100 100 100 100 100 100 100 100 100 100 100 100 100 34 75
100 100 100 100 100 100 100 100 100 100 100 100 100 100 100 100 100 100 100 24 43 3
100 100 100 100 100 100 100 100 100 100 100 100 100 100 100 100 100 73 98 93 3 5
100 100 100 100 100 99 100 100 100 100 100 100 100 100 100 100 83 84 75 5 5 5

GFSNIL_prec_cloud_042.txt.gz
Cloud_Cover
90 26 78 69 94 100 100 100 100 100 100 100 100 99 100 99 56 55 51 5 5 5
100 100 100 100 100 100 100 100 100 100 100 100 92 100 100 88 59 5 6 72 53 83
100 100 100 100 100 100 100 100 87 100 100 100 99 100 80 92 12 85 59 12 36 26
88 84 97 100 100 100 92 100 100 100 94 84 67 44 94 86 88 65 46 97 100 82
95 99 100 100 100 100 100 100 100 100 95 95 99 100 98 99 68 100 100 100 99 100
100 100 100 100 93 29 6 54 69 46 92 88 95 100 100 100 84 90 97 99 100 100
97 100 99 92 99 30 17 71 73 99 84 89 95 100 100 100 95 100 100 100 100 100
96 100 90 76 72 79 93 89 100 96 100 100 100 100 100 100 100 100 100 100 100 100
39 5 16 90 46 100 100 100 100 100 100 100 100 100 100 100 100 100 100 100 100 100
100 88 100 100 99 100 100 100 100 100 100 100 100 100 100 100 100 100 100 100 100 100
100 85 99 100 100 100 100 100 100 99 100 100 100 100 100 100 100 100 100 100 99 94
90 100 100 100 100 100 99 81 23 46 81 100 100 100 100 100 100 100 99 26 97 94
100 100 91 87 83 96 80 16 98 100 99 83 34 5 5 86 14 44 82 69 20 5
96 100 100 75 32 5 2 4 2 0 0 1 5 7 97 100 84 69 100 62 19 5

GFSNIL_prec_cloud_045.txt.gz
Cloud_Cover
0 6 38 99 100 100 100 87 99 80 78 100 100 99 100 100 98 78 93 25 93 99
0 25 4 42 79 100 100 100 100 100 95 100 98 100 100 100 68 73 84 99 100 100
2 3 94 100 100 100 100 100 81 92 100 100 100 100 100 97 99 92 99 98 100 100
3 26 82 76 54 51 94 90 93 100 100 100 100 92 94 100 99 100 100 100 100 100
69 11 41 92 99 100 100 96 30 98 97 99 100 99 100 89 100 100 86 92 100 100
54 99 100 100 100 100 94 98 100 100 100 100 100 100 100 100 86 83 81 72 87 100
60 91 100 100 100 87 100 100 84 82 93 100 100 98 100 100 100 100 81 77 99 100
99 98 100 100 100 100 95 100 100 100 100 100 100 100 89 70 76 98 82 79 84 97
100 100 100 100 94 100 100 100 100 100 100 100 100 100 91 10 5 5 5 18 20 5
100 100 100 100 100 100 100 100 100 94 92 28 80 63 28 5 5 5 5 5 49 98
60 76 100 100 100 100 100 100 100 98 5 19 5 5 5 4 5 5 5 87 72 90
100 100 100 100 100 100 100 100 91 29 12 5 56 98 6 0 5 5 39 14 5 21
100 100 100 100 91 100 99 92 98 5 27 100 58 43 1 2 5 5 5 95 66 83
100 97 95 100 100 100 96 88 42 98 75 43 45 34 0 2 13 100 82 72 24 70

GFSNIL_prec_cloud_048.txt.gz
Cloud_Cover
90 100 100 94 65 31 65 76 99 96 100 100 100 36 100 100 90 82 100 34 5 5
100 88 100 84 99 100 100 96 100 98 99 28 24 100 100 100 100 93 48 5 5 6
100 100 86 64 16 100 100 86 77 64 31 99 100 100 100 100 77 91 70 83 43 34
98 98 71 88 100 100 100 95 100 84 100 100 100 100 100 68 100 89 86 72 9 60
99 100 100 99 99 100 100 100 94 100 100 100 100 99 81 100 100 95 65 12 32 45
69 79 100 100 96 100 100 100 100 100 100 100 100 100 98 97 39 36 78 20 4 5
76 44 77 95 100 98 96 100 100 78 100 100 93 100 100 82 93 98 21 5 5 7
49 96 100 100 83 100 74 100 100 88 100 100 100 100 100 100 77 39 5 5 12 65
95 100 98 80 82 100 97 100 100 100 100 100 100 100 100 100 24 5 5 59 100 75
100 100 100 100 93 100 100 100 100 100 100 100 99 100 73 92 13 11 97 100 95 51
100 100 100 100 100 100 100 100 100 100 100 100 100 100 100 23 70 100 100 92 16 40
100 100 100 100 100 100 100 100 100 100 100 100 100 81 47 100 100 100 83 7 49 12
100 100 100 94 100 100 100 100 100 100 100 100 83 100 100 100 96 6 5 5 80 100
99 100 100 55 35 78 99 100 99 93 96 98 100 98 99 78 6 5 5 5 5 5

GFSNIL_prec_cloud_051.txt.gz
Cloud_Cover
100 100 100 100 100 100 100 100 100 95 92 98 96 99 100 100 100 100 71 100 42 5
100 100 96 37 100 100 100 100 100 100 100 100 86 100 100 100 100 100 74 84 43 14
62 74 90 100 100 100 100 100 100 100 100 100 100 100 100 100 100 100 100 100 91 78
100 100 100 100 100 100 100 100 100 100 100 100 100 100 100 100 100 84 94 92 90 85
100 100 100 100 100 100 100 100 100 100 100 100 100 100 100 100 100 100 100 100 98 80
100 100 100 100 100 100 100 100 100 100 99 100 100 100 97 81 100 100 100 56 62 6
100 100 100 96 75 100 100 100 93 92 100 100 100 100 100 100 94 67 100 63 11 7
100 100 100 74 70 100 100 71 99 100 100 100 100 100 100 100 94 100 82 66 7 5
91 100 64 100 100 100 31 100 100 100 100 100 100 100 100 100 100 68 13 5 43 18
100 100 100 100 100 97 95 100 100 100 100 100 100 95 90 74 5 5 5 50 7 15
86 92 94 90 100 100 100 100 100 99 100 99 97 68 26 6 5 5 55 78 20 32
91 99 94 100 100 100 93 98 100 72 32 5 68 20 5 5 8 60 58 53 65 9
90 98 100 98 100 100 98 100 85 5 5 5 5 5 5 57 6 5 47 5 5 5
100 99 88 87 91 5 5 5 5 5 5 5 5 5 5 40 48 27 5 5 5 5

GFSNIL_prec_cloud_054.txt.gz
Cloud_Cover
100 100 100 100 100 100 100 100 100 100 100 100 100 100 100 100 100 100 100 100 100 95
100 100 100 100 100 100 89 100 100 100 100 100 100 100 100 100 100 100 100 100 96 74
100 100 100 100 100 100 100 100 100 100 100 100 100 100 100 100 100 100 100 100 93 99
99 100 100 100 100 100 100 100 100 100 100 100 100 100 100 100 100 100 100 100 98 99
100 100 100 100 100 100 100 100 100 100 100 100 100 100 100 100 100 100 100 100 75 100
100 100 100 100 100 100 100 100 100 100 100 100 100 100 100 100 100 100 100 100 100 100
100 100 100 100 100 100 100 100 100 100 100 100 100 100 100 100 100 100 100 100 100 100
100 100 100 100 99 94 100 100 100 100 100 100 100 100 100 100 100 100 100 100 100 91
100 100 100 83 78 60 85 51 100 100 100 100 100 100 100 95 85 32 53 78 44 5
31 43 14 18 28 76 100 70 100 94 100 100 100 100 100 60 6 5 5 5 5 5
31 23 83 79 75 26 87 98 97 100 100 100 100 76 60 5 5 5 5 5 5 5
74 69 76 64 56 86 98 100 100 100 100 87 57 11 26 5 5 5 12 5 5 5
78 88 100 100 100 100 97 100 100 77 38 5 5 5 9 5 5 5 7 5 5 5
100 96 78 62 73 100 78 41 57 8 8 33 5 5 32 9 5 5 5 5 5 5

GFSNIL_prec_cloud_057.txt.gz
Cloud_Cover
100 95 100 100 100 100 100 100 100 100 100 100 100 100 100 100 100 100 100 100 100 100
100 100 100 100 100 100 100 100 100 100 100 100 100 100 100 100 100 100 100 100 100 100
90 98 100 100 100 100 100 100 100 100 100 100 100 100 100 100 100 100 100 100 100 100
100 99 64 98 100 100 100 100 100 100 100 100 100 100 100 100 100 100 100 100 100 100
100 100 100 100 100 100 100 100 100 100 100 100 100 100 100 100 100 100 100 100 90 73
100 100 100 100 100 100 100 100 100 100 100 100 100 100 100 100 100 100 100 100 100 100
100 100 100 100 100 100 100 100 100 100 100 100 100 100 100 100 100 100 100 100 100 100
100 100 100 100 100 100 100 100 100 100 100 100 100 100 100 100 100 100 100 100 100 62
100 95 85 91 83 66 59 66 51 94 100 100 100 98 100 100 100 100 72 81 65 26
38 33 34 21 52 65 85 98 100 100 100 100 100 100 100 86 34 53 95 21 35 12
45 76 91 90 89 100 100 100 100 100 100 100 96 48 14 69 100 69 98 55 5 5
83 98 100 100 100 100 100 100 100 100 88 71 80 99 87 31 68 68 5 5 5 5
98 92 95 100 100 98 74 28 30 29 49 21 5 9 10 54 13 5 5 6 36 5
74 97 76 36 50 61 55 28 28 20 5 6 11 80 100 27 5 5 11 7 8 5

GFSNIL_prec_cloud_060.txt.gz
Cloud_Cover
100 96 78 100 91 58 96 100 100 100 100 100 100 100 100 100 100 100 100 100 100 100
100 100 60 5 52 46 78 100 100 100 100 95 100 100 100 100 100 100 100 100 100 100
98 94 52 92 100 100 92 100 100 100 100 100 100 100 100 100 100 100 100 100 100 100
33 22 100 100 100 95 89 100 100 100 100 100 100 100 100 100 100 100 100 100 100 100
100 100 100 87 52 100 99 100 100 100 100 100 100 100 100 100 100 100 100 100 100 98
100 99 74 100 100 100 100 100 100 100 100 100 100 100 100 100 100 100 100 100 100 100
100 76 100 100 100 100 100 100 100 100 100 100 100 100 100 100 100 100 100 100 100 100
73 100 100 100 100 100 100 100 100 100 100 100 100 100 100 100 100 100 100 100 95 20
100 100 100 97 100 100 100 100 99 72 23 98 90 100 100 100 100 100 91 11 14 5
100 98 100 97 100 52 45 26 77 100 97 87 90 83 76 53 5 5 8 51 100 99
31 28 49 22 11 67 99 52 73 15 5 5 61 9 6 34 95 62 19 35 83 66
5 5 90 100 79 100 98 28 15 21 31 5 28 71 9 37 96 67 90 100 72 17
22 78 100 100 58 36 46 70 92 12 5 5 5 28 9 5 5 5 6 82 74 42
87 88 51 35 21 11 94 26 15 9 34 60 5 39 6 5 5 5 5 5 5 15

GFSNIL_prec_cloud_063.txt.gz
Cloud_Cover
46 44 5 6 18 83 100 86 100 100 100 100 74 27 37 98 100 100 100 100 100 100
12 20 99 100 100 100 100 100 100 100 100 100 100 100 99 100 100 100 100 100 100 100
100 100 100 100 100 100 100 100 100 100 100 100 100 100 100 100 100 100 100 100 100 100
100 98 98 100 100 100 100 100 100 100 100 100 100 100 98 94 100 100 100 100 100 100
100 100 100 100 100 100 100 100 100 100 100 100 100 100 100 100 100 100 100 100 100 100
100 100 100 100 100 100 100 100 100 100 100 100 100 100 100 100 100 100 100 100 100 100
100 100 100 100 100 100 100 100 100 100 100 100 100 100 100 100 100 100 100 100 97 96
100 100 100 100 99 100 100 100 100 100 100 100 100 100 100 100 100 100 100 100 99 25
100 70 54 72 75 100 100 100 100 100 100 100 99 78 83 84 96 100 96 84 19 4
71 45 92 92 100 100 100 100 100 78 33 12 63 49 80 42 38 5 5 5 5 5
72 78 100 100 100 100 62 8 2 4 31 36 28 38 13 22 5 5 14 5 5 5
74 46 41 84 71 14 0 4 5 5 89 89 58 50 5 5 5 6 5 8 17 5
5 5 93 100 100 96 5 5 5 5 5 91 92 5 5 4 6 17 5 5 24 37
11 22 100 86 5 6 6 5 71 5 45 62 22 5 5 5 5 5 13 65 87 55

GFSNIL_prec_cloud_066.txt.gz
Cloud_Cover
93 99 95 100 96 100 71 87 59 99 100 100 100 95 87 91 54 100 100 100 100 100
5 14 100 83 14 85 86 99 100 100 100 100 100 95 55 100 99 100 100 97 100 72
79 87 100 59 98 100 100 100 100 100 100 100 100 100 100 100 100 100 100 100 100 100
100 100 100 99 100 100 100 100 100 100 100 100 100 100 100 100 100 100 100 100 100 100
100 100 100 100 100 100 100 100 100 100 100 100 100 100 100 100 100 100 100 100 100 100
100 100 100 100 100 100 100 100 100 100 100 100 100 100 100 100 100 100 100 100 100 100
100 100 100 100 100 100 100 100 100 100 100 100 100 100 100 100 100 100 100 100 100 100
100 100 100 100 100 100 100 100 100 100 100 100 100 100 100 100 100 100 100 100 100 100
100 100 100 100 100 100 100 100 100 100 100 100 100 100 100 100 100 100 100 100 66 71
100 100 100 100 100 100 100 100 100 100 100 100 100 99 97 100 100 100 76 53 8 5
100 100 100 100 100 100 100 100 100 100 100 57 26 100 100 96 33 5 5 5 5 5
100 100 100 100 100 100 100 100 98 16 4 4 47 66 15 5 5 5 5 5 5 74
100 98 100 100 100 86 40 10 33 11 22 7 57 100 8 5 5 7 38 50 10 67
100 100 83 38 4 2 2 37 69 59 100 78 8 35 5 5 48 92 74 64 68 40

GFSNIL_prec_cloud_069.txt.gz
Cloud_Cover
0 3 5 5 30 5 5 90 100 100 100 100 100 100 100 100 100 98 67 95 65 100
1 0 3 27 5 78 34 93 100 100 100 100 100 100 100 100 100 100 100 100 100 100
20 13 46 55 67 77 100 100 100 100 100 100 100 100 100 100 100 100 100 100 100 100
100 100 100 100 100 100 100 100 100 100 100 100 100 100 100 100 100 100 100 100 100 100
100 100 100 100 100 100 100 100 100 100 100 100 100 100 100 100 100 100 100 100 100 100
100 100 100 100 100 100 100 100 100 100 100 100 100 100 100 100 100 100 100 100 100 100
100 60 100 100 100 100 100 100 100 100 100 100 100 100 100 100 100 100 100 100 100 100
100 96 100 100 100 100 100 100 100 100 100 100 100 100 100 100 100 100 100 100 100 100
100 65 100 100 100 100 100 100 100 100 100 100 100 100 100 100 100 100 100 100 100 100
100 100 100 100 100 100 100 100 100 100 100 100 100 100 100 100 100 100 100 100 100 100
100 100 100 100 100 100 100 100 100 100 100 100 100 100 100 100 100 100 100 100 100 77
100 100 100 100 100 100 100 100 100 100 100 100 100 100 100 100 100 100 100 54 9 61
100 100 100 100 100 100 100 100 100 100 100 100 100 100 100 100 100 32 4 1 14 99
100 100 100 100 100 100 100 100 100 100 100 100 100 100 100 66 6 25 71 53 86 100

GFSNIL_prec_cloud_072.txt.gz
Cloud_Cover
100 99 100 100 100 100 100 100 100 100 100 100 100 98 21 36 30 76 97 100 100 100
100 65 5 5 53 93 97 39 5 5 6 21 86 72 71 100 100 100 100 100 98 100
6 4 5 5 15 62 48 82 88 94 26 88 50 100 100 96 100 100 91 100 100 100
100 100 100 100 100 77 100 100 100 100 100 100 100 100 100 100 100 100 100 100 100 100
100 99 100 100 100 77 94 99 100 100 100 100 100 100 100 100 100 100 100 100 100 100
100 88 94 99 80 84 97 100 97 100 100 100 100 99 100 100 100 100 100 100 100 100
100 87 100 100 100 100 100 100 100 100 100 100 100 100 100 100 100 100 100 100 100 100
100 100 55 78 58 100 100 100 100 100 100 100 100 100 100 100 100 100 100 100 100 100
33 99 100 100 100 100 100 100 100 100 100 100 100 100 100 100 100 100 100 100 100 100
5 71 96 96 89 100 100 100 100 100 100 100 100 100 100 100 100 100 100 100 100 100
6 53 94 100 100 100 100 100 100 100 100 100 100 100 100 100 100 100 100 100 100 100
100 100 100 100 100 100 100 100 100 100 100 100 100 100 100 100 100 100 100 100 100 100
100 100 100 100 100 100 100 100 100 100 100 100 100 100 100 100 100 100 100 100 100 100
100 100 100 100 100 100 100 100 100 100 100 100 100 100 100 100 100 100 100 100 100 100

GFSNIL_prec_cloud_075.txt.gz
Cloud_Cover
100 100 100 100 100 100 100 100 100 100 100 100 100 100 100 100 100 100 100 100 84 98
100 100 100 100 100 100 100 100 100 100 100 100 100 100 100 97 85 94 99 100 93 81
50 100 100 100 90 73 68 66 58 88 90 95 54 10 8 29 50 94 100 91 100 100
34 47 65 100 100 100 100 100 48 55 100 98 100 99 100 100 100 99 100 100 100 100
67 98 82 100 99 66 63 58 79 9 84 100 67 93 100 100 100 100 100 100 100 100
100 98 36 69 87 74 33 99 43 94 93 100 100 94 100 100 100 100 100 100 100 100
93 81 77 6 11 39 99 100 100 100 96 98 98 82 100 100 100 100 100 100 100 100
8 100 88 56 38 44 5 71 26 32 100 100 100 100 100 100 100 100 100 100 100 100
0 0 68 100 100 100 61 87 100 100 49 100 100 100 100 100 100 100 100 100 100 100
5 4 0 0 0 11 85 100 98 94 100 100 100 100 100 100 100 100 100 100 100 100
21 2 4 7 9 20 100 100 100 100 100 100 100 100 100 100 100 100 100 100 100 100
100 99 54 80 100 100 100 100 100 100 100 100 100 100 100 100 100 100 100 100 100 100
100 100 100 100 100 100 100 100 100 100 100 100 100 100 100 100 100 100 100 100 100 100
100 100 100 100 100 100 100 100 100 100 100 100 100 100 100 100 100 100 100 100 100 100

GFSNIL_prec_cloud_078.txt.gz
Cloud_Cover
100 100 100 100 99 100 100 100 100 100 100 100 100 100 100 100 100 99 100 100 100 100
100 100 100 100 98 98 100 100 100 100 100 100 100 100 92 73 7 56 80 100 100 100
27 77 100 100 100 100 100 100 100 100 100 100 100 100 100 93 62 84 98 42 100 98
1 21 36 98 100 100 100 100 100 100 100 100 62 50 38 30 22 56 100 100 100 84
37 25 14 10 42 100 100 100 100 83 49 8 35 95 6 72 85 100 100 100 97 90
96 100 98 5 37 25 12 88 67 44 63 5 8 88 70 94 90 97 91 76 77 100
0 8 72 97 65 31 32 28 23 78 86 100 100 100 100 100 100 100 100 100 100 100
4 0 0 0 2 5 5 28 6 19 53 79 100 100 100 100 100 100 94 100 100 100
77 5 5 0 0 0 2 31 5 27 44 100 100 100 96 100 100 100 100 100 100 100
88 72 78 70 25 0 0 12 11 35 27 86 79 100 100 100 60 100 100 100 100 100
100 100 100 96 93 100 26 15 31 36 67 100 100 100 100 100 100 100 100 100 100 100
100 100 100 100 100 100 100 92 96 100 47 100 100 100 100 100 100 100 100 100 100 100
100 100 100 100 100 100 100 100 100 100 100 100 100 100 100 100 100 100 100 100 100 100
98 100 100 94 100 100 100 100 100 100 100 100 100 100 100 100 100 100 100 100 100 100

GFSNIL_prec_cloud_081.txt.gz
Cloud_Cover
100 100 67 100 100 100 100 100 100 100 100 100 100 100 100 100 100 100 100 100 100 100
100 96 96 51 84 100 100 100 100 100 100 100 100 100 100 100 100 100 100 100 100 100
100 100 97 67 47 60 81 91 100 100 100 100 100 100 100 100 100 100 100 100 100 100
38 57 99 23 23 100 100 100 100 80 75 65 99 100 100 100 100 100 86 81 81 49
20 29 20 3 15 12 100 100 100 100 100 100 100 84 6 5 5 5 20 88 91 92
2 0 0 8 11 26 45 38 88 100 100 100 100 100 99 5 21 5 5 10 6 70
24 4 0 0 3 20 20 4 7 25 66 37 46 58 54 40 42 78 95 55 52 68
53 98 49 2 4 2 0 1 4 5 5 5 6 61 53 27 72 85 96 43 89 100
5 15 100 100 67 14 72 80 4 2 4 5 3 5 5 74 95 33 100 79 92 100
100 73 68 68 9 26 22 45 94 100 99 50 8 5 75 38 100 100 100 100 79 100
100 51 41 98 100 100 100 100 100 27 94 100 100 10 5 93 32 98 94 95 100 100
98 93 99 100 100 100 100 93 80 100 100 95 67 100 100 100 94 98 100 100 100 100
44 97 100 100 100 100 91 89 100 100 100 100 100 100 100 100 100 100 100 100 100 100
100 100 100 100 100 100 100 100 100 100 100 100 100 100 100 100 100 100 100 100 100 100

GFSNIL_prec_cloud_084.txt.gz
Cloud_Cover
97 100 44 87 100 100 100 100 100 100 100 100 100 100 100 100 100 100 100 100 100 100
100 44 99 100 70 100 100 100 100 100 100 100 100 100 100 100 100 100 100 100 100 100
100 100 100 100 86 90 100 100 100 100 100 100 100 100 100 100 100 100 100 100 100 100
98 100 100 100 98 42 6 34 98 100 100 100 100 100 100 100 100 100 100 100 100 100
100 100 100 100 100 82 8 3 21 80 88 77 100 100 100 100 100 100 100 100 100 100
47 43 62 79 100 67 5 3 14 79 82 100 63 13 52 92 100 97 94 72 90 84
33 100 29 5 21 38 53 16 23 18 3 9 26 79 99 67 15 27 18 35 17 85
5 6 81 93 43 88 99 64 14 24 6 5 11 5 5 5 6 5 5 100 87 68
5 6 92 31 67 99 100 100 33 28 22 35 10 5 5 5 5 5 5 6 34 93
5 5 6 34 8 100 96 92 66 23 100 100 100 100 100 97 85 97 82 68 50 97
28 54 7 7 61 100 100 52 76 80 88 77 95 96 100 100 100 96 21 46 64 59
99 69 54 34 93 65 42 57 100 100 100 54 77 95 98 52 75 99 100 100 100 94
78 80 50 49 72 93 99 100 100 100 100 100 100 100 99 99 100 100 100 100 100 100
98 15 84 18 99 94 95 96 100 100 100 100 100 100 100 100 100 100 100 100 100 100

GFSNIL_prec_cloud_087.txt.gz
Cloud_Cover
100 98 100 100 80 100 100 100 100 100 100 100 100 100 100 100 100 100 100 100 100 100
100 99 99 65 13 99 100 100 100 100 100 97 100 100 100 100 100 100 100 100 100 100
98 94 8 11 26 2 88 100 100 100 100 100 100 100 100 100 100 100 100 100 100 100
100 100 49 2 27 36 1 83 100 100 100 100 100 100 100 100 100 100 100 100 100 100
100 100 60 99 4 24 17 1 8 70 100 100 100 100 100 100 100 100 100 100 100 100
91 100 100 64 40 40 3 26 0 1 5 6 54 82 88 97 100 93 99 100 100 100
4 16 98 91 69 62 82 41 7 1 0 1 5 5 5 4 5 6 6 10 71 99
100 2 5 4 4 23 96 68 28 31 12 1 0 3 5 5 5 10 74 19 30 32
98 5 3 3 5 5 5 15 20 52 8 5 1 0 4 5 5 65 82 94 99 54
51 5 5 24 11 10 20 5 38 54 93 84 21 22 15 99 38 92 98 70 41 100
78 15 96 100 100 100 52 56 17 18 44 78 62 100 63 20 66 49 24 19 7 47
100 100 100 100 100 100 41 42 35 51 66 35 79 100 100 86 90 98 90 94 89 96
100 100 100 100 100 100 100 12 98 100 100 100 100 100 100 100 100 100 100 100 100 100
100 100 100 100 100 100 100 99 100 100 100 100 100 100 100 100 100 100 100 100 100 100

GFSNIL_prec_cloud_090.txt.gz
Cloud_Cover
100 95 77 94 97 99 100 100 100 100 100 100 100 100 100 100 100 100 100 81 100 73
14 68 0 34 96 25 41 60 100 100 100 100 100 100 100 100 100 100 76 100 100 99
100 91 94 50 11 0 0 67 97 99 100 100 100 100 100 100 100 100 63 82 100 97
99 100 100 18 0 0 0 0 2 61 100 100 100 100 100 100 100 100 100 100 100 100
80 100 100 65 0 0 0 0 0 0 2 21 100 100 100 100 100 100 100 100 100 100
41 85 100 100 42 5 0 0 5 0 0 0 2 51 98 100 100 100 100 100 100 100
5 8 50 100 100 6 5 5 3 2 3 1 1 0 4 2 18 27 28 26 36 80
8 5 100 100 55 100 48 12 28 5 5 5 4 3 2 4 5 5 5 5 5 19
100 83 88 100 100 100 17 54 38 84 18 5 70 84 5 5 3 4 5 47 36 6
100 100 99 100 100 100 100 88 100 100 100 100 100 11 30 5 43 4 5 24 99 82
100 100 100 100 100 100 100 100 100 100 100 100 100 84 98 58 73 36 5 13 58 68
100 100 100 100 100 100 100 100 100 100 100 100 100 100 100 100 100 100 100 100 100 100
100 100 100 100 100 100 100 100 100 100 100 100 100 100 100 100 100 100 100 100 65 85
100 100 100 100 100 100 100 100 100 100 100 100 100 100 100 100 100 100 100 100 100 100

GFSNIL_prec_cloud_093.txt.gz
Cloud_Cover
93 49 47 11 95 100 100 100 100 100 100 100 100 100 100 100 100 100 100 100 100 100
100 98 0 1 2 53 86 100 100 86 100 100 100 100 100 100 100 100 100 100 100 100
87 94 63 0 0 2 4 50 29 39 80 98 100 100 100 100 100 100 100 100 100 100
7 4 7 0 0 0 0 3 28 35 38 33 84 100 100 100 100 100 100 100 100 100
50 5 5 3 0 0 0 0 0 25 63 44 13 18 87 100 100 100 100 100 100 100
90 15 5 2 5 5 2 0 0 1 19 11 0 0 0 0 5 39 91 97 100 100
100 37 27 26 5 3 17 4 5 5 5 5 5 0 1 3 0 4 5 5 5 6
100 73 39 30 17 16 56 100 99 44 4 5 12 21 11 5 5 4 1 5 5 5
100 100 100 100 100 78 70 55 90 100 100 65 21 100 100 100 93 82 5 41 5 5
100 100 100 100 100 100 100 100 86 63 81 99 100 100 100 100 100 98 44 13 49 30
100 100 100 100 100 100 100 100 100 100 100 100 100 89 82 100 66 60 76 70 100 100
100 100 100 100 100 100 100 100 100 100 100 100 100 100 100 100 100 100 100 100 100 100
100 100 100 100 100 100 100 100 100 100 100 100 100 100 100 100 100 100 100 100 100 100
100 100 100 100 100 100 100 100 100 100 100 100 100 100 100 100 100 100 100 100 100 100

GFSNIL_prec_cloud_099.txt.gz
Cloud_Cover
51 4 7 17 23 43 100 100 100 100 100 100 98 100 100 100 100 100 100 100 100 100
40 7 14 1 72 63 97 100 100 100 100 100 100 100 100 100 100 100 100 100 100 100
38 8 58 13 62 91 100 100 100 100 92 100 100 100 100 100 100 100 100 100 100 100
62 29 100 86 48 54 100 100 100 100 99 100 100 100 100 100 100 100 100 100 100 100
67 41 30 100 100 100 57 100 100 100 100 100 100 100 100 100 100 100 100 100 100 100
99 63 47 100 100 100 100 90 52 63 96 100 100 100 100 100 98 100 100 100 100 100
100 100 100 100 100 100 100 100 76 27 25 60 85 100 100 100 100 100 100 100 99 99
100 100 100 100 100 100 100 100 100 60 80 24 27 55 69 89 100 100 100 100 80 15
100 100 100 100 100 93 93 98 100 96 22 15 7 5 6 20 34 67 100 93 14 52
100 100 100 100 100 100 95 80 100 100 90 23 21 81 63 28 41 53 83 86 71 89
100 100 100 100 100 100 100 100 100 100 100 98 100 100 96 97 100 100 100 100 100 87
100 100 100 100 100 100 100 100 100 100 100 100 100 100 100 100 100 100 100 100 100 100
100 100 100 100 100 100 100 100 100 100 100 100 100 100 100 100 100 100 100 100 100 100
100 100 100 100 100 100 100 100 100 100 100 100 100 100 100 100 100 100 100 100 100 100

GFSNIL_prec_cloud_102.txt.gz
Cloud_Cover
8 15 14 51 0 14 58 99 68 56 55 100 100 100 100 100 100 100 99 100 100 100
20 30 23 52 5 38 82 84 100 100 100 100 100 100 100 100 100 100 100 100 100 100
80 50 40 26 11 69 78 60 78 100 100 100 100 98 99 100 100 100 100 100 100 100
90 89 44 27 39 63 75 59 88 100 100 100 100 100 100 100 100 100 100 100 100 100
100 99 42 26 51 99 99 42 100 100 90 100 100 100 100 100 100 100 100 100 100 100
100 83 34 100 76 100 100 100 97 100 100 100 100 87 83 99 85 100 100 100 100 100
100 99 70 100 100 100 100 100 100 100 100 100 100 79 90 92 86 70 95 82 49 61
100 100 100 100 100 100 100 100 100 100 100 100 96 75 73 70 66 47 48 90 74 48
100 100 100 100 100 100 100 100 100 100 100 100 100 100 73 84 100 100 100 100 84 100
100 100 100 100 100 100 100 100 100 100 100 100 100 100 82 69 100 100 100 100 81 57
100 100 100 100 100 100 100 100 100 100 100 100 100 100 100 100 100 100 100 100 100 100
100 100 100 100 100 100 100 100 100 100 100 100 100 100 100 100 100 100 100 100 100 100
100 100 100 100 100 100 100 100 100 100 100 100 100 100 100 100 100 100 100 100 100 100
100 100 100 100 100 100 100 100 100 100 100 100 100 100 100 100 100 100 100 100 100 100

GFSNIL_prec_cloud_105.txt.gz
Cloud_Cover
38 26 6 0 5 5 32 94 87 51 81 99 100 100 100 100 100 100 100 100 100 100
100 40 21 3 5 5 32 82 100 43 88 67 82 100 100 100 100 100 100 100 100 100
100 92 48 50 5 7 48 100 99 81 50 95 100 98 100 100 100 100 100 100 100 100
100 100 98 67 12 50 85 100 100 83 90 90 86 100 100 100 100 100 100 100 100 100
100 100 100 73 64 100 100 100 100 84 42 100 100 100 100 95 100 100 100 100 100 100
100 100 100 100 84 100 100 100 100 92 99 100 100 85 99 100 100 100 100 100 100 100
100 100 100 100 99 100 100 100 100 100 100 100 100 100 100 100 100 100 100 95 97 100
100 100 100 100 100 100 100 100 100 91 100 97 100 100 100 100 100 100 100 100 100 100
100 100 100 100 100 100 100 100 100 100 100 100 100 100 100 100 100 100 100 100 100 100
100 100 100 100 100 100 100 100 100 100 100 100 100 100 100 100 100 100 97 100 100 100
100 100 100 100 100 100 100 100 100 100 100 100 100 100 100 100 99 100 100 100 100 100
100 100 100 100 100 100 100 100 100 100 100 100 100 100 100 100 100 100 100 100 100 100
100 100 100 100 100 100 100 100 100 100 100 100 100 100 100 100 100 100 100 100 100 100
100 100 100 100 100 100 100 100 100 100 100 100 100 100 100 100 100 100 100 100 100 100

GFSNIL_prec_cloud_108.txt.gz
Cloud_Cover
5 42 6 5 59 63 3 0 5 7 62 100 100 99 68 100 100 100 100 100 100 100
3 60 6 56 5 7 4 3 5 97 69 73 83 87 87 97 100 100 100 100 100 100
0 67 72 100 0 35 3 4 20 8 80 71 80 100 100 100 100 100 100 100 100 100
0 100 100 100 53 96 1 5 33 55 48 97 100 100 100 100 100 100 100 100 100 100
88 100 100 100 78 96 2 71 35 100 98 87 100 100 100 100 100 100 100 100 100 100
100 100 100 100 100 81 100 98 100 100 100 96 93 100 100 100 100 100 100 100 100 100
100 100 100 100 99 100 100 100 100 100 100 100 99 88 100 100 94 100 100 100 100 100
100 100 100 100 100 100 100 100 100 100 100 100 100 100 100 100 100 100 100 100 100 100
100 100 100 100 100 100 100 100 100 100 100 100 100 100 100 100 100 100 100 100 100 100
100 100 100 100 100 100 100 100 100 100 100 100 100 100 100 100 100 100 100 100 100 100
100 100 100 100 100 100 100 100 100 100 100 100 100 100 100 100 100 100 100 100 100 100
100 100 100 100 100 100 100 100 100 100 100 100 100 100 100 100 100 100 100 100 100 100
100 100 100 100 100 100 100 100 100 100 100 100 100 100 100 100 100 100 100 100 100 100
100 100 100 100 100 100 100 100 100 100 100 100 100 100 100 100 100 100 100 100 100 100

GFSNIL_prec_cloud_111.txt.gz
Cloud_Cover
53 6 35 25 100 100 5 6 74 41 50 62 85 98 100 97 78 100 100 100 100 100
83 93 88 50 41 30 35 10 6 26 55 74 100 100 97 100 99 100 100 100 66 100
5 18 6 97 100 52 96 5 5 13 46 71 76 100 100 100 100 97 100 100 100 100
5 29 81 100 100 100 100 14 51 6 60 95 100 84 100 100 100 100 100 100 100 100
100 97 82 100 100 100 100 23 12 4 1 89 100 100 100 100 100 100 100 100 100 100
100 100 100 100 100 100 100 71 90 26 17 100 100 100 100 100 100 100 89 100 100 100
100 52 100 100 100 100 100 100 100 94 100 100 100 100 100 100 100 100 100 100 100 100
100 100 100 100 98 100 100 100 100 100 100 100 100 100 100 100 100 100 100 100 100 100
100 100 100 61 100 100 100 100 100 100 100 100 100 100 100 100 100 100 100 100 100 100
100 100 100 100 100 100 100 100 100 100 100 100 100 100 100 100 100 100 100 100 100 100
100 100 100 100 100 100 100 100 100 100 100 100 100 100 100 100 100 100 100 100 100 100
100 100 100 100 100 100 100 100 100 100 100 100 100 100 100 100 100 100 100 100 100 100
100 100 100 100 100 100 100 100 100 100 100 100 100 100 100 100 100 100 100 100 100 100
100 100 100 100 100 100 100 100 100 100 100 100 100 100 100 100 100 100 100 100 100 100

GFSNIL_prec_cloud_114.txt.gz
Cloud_Cover
100 100 100 100 100 98 36 77 100 99 89 100 57 85 100 100 100 84 100 100 100 100
98 100 100 80 100 100 65 32 100 100 100 90 97 92 100 100 100 100 100 100 100 100
10 100 74 100 100 77 90 98 100 100 100 100 99 100 100 100 100 100 100 90 100 100
5 86 93 97 100 100 100 100 100 100 100 100 100 97 100 100 93 100 100 96 100 100
70 70 74 100 100 100 100 100 100 100 100 100 100 100 100 100 100 100 100 100 100 100
100 100 98 100 100 100 100 100 100 100 100 100 100 100 100 100 100 100 100 100 100 100
100 100 100 86 93 100 100 100 100 100 100 100 100 100 100 100 100 100 100 100 100 100
100 100 100 100 58 100 100 100 100 100 100 100 100 100 100 100 100 100 100 100 100 100
100 100 100 100 100 100 100 100 100 100 100 100 100 100 100 100 100 100 100 100 100 100
100 100 100 100 100 100 100 100 100 100 100 100 100 100 100 100 100 100 100 100 100 100
100 100 100 100 100 100 100 100 100 100 100 100 100 100 100 96 100 100 100 100 100 100
100 100 100 100 100 100 100 100 100 100 100 100 100 100 100 100 100 100 100 100 100 100
100 100 100 100 100 100 100 100 100 100 100 100 100 100 100 100 100 100 100 100 100 100
100 100 100 100 100 100 100 100 100 100 100 100 100 100 100 100 100 100 100 100 100 100

GFSNIL_prec_cloud_117.txt.gz
Cloud_Cover
100 100 100 100 100 100 92 76 100 100 100 100 97 44 76 100 100 100 100 100 100 50
100 100 100 100 100 100 100 100 100 100 100 100 93 87 100 100 100 100 100 98 65 100
100 99 94 97 100 100 100 100 91 100 100 100 93 100 100 100 68 100 100 100 99 100
100 84 64 89 83 100 100 90 100 99 100 100 100 100 100 100 40 100 100 100 100 100
100 100 100 100 30 36 53 56 78 100 100 100 100 100 99 64 88 100 100 100 100 100
100 100 100 100 100 92 72 65 92 100 100 100 100 100 100 59 100 100 100 100 100 100
100 100 100 100 100 100 94 98 100 100 100 100 100 100 100 97 100 100 100 100 100 100
100 100 100 100 100 100 100 100 100 100 100 100 100 100 100 100 100 100 100 100 100 100
100 100 100 100 100 100 100 100 100 100 100 100 100 100 100 99 100 100 100 100 100 100
100 100 100 100 100 100 100 100 100 100 100 100 100 100 100 100 100 100 100 100 100 100
100 100 100 99 100 100 100 100 100 100 100 100 100 100 100 100 100 100 100 100 100 100
99 100 100 99 100 100 100 100 100 100 100 100 100 100 100 100 100 100 100 100 100 100
100 100 100 100 100 100 100 100 100 100 100 100 100 100 100 100 100 100 100 100 100 100
100 100 100 100 100 100 100 100 100 100 100 100 100 100 100 100 100 100 100 100 100 100

GFSNIL_prec_cloud_120.txt.gz
Cloud_Cover
100 100 100 100 100 100 100 100 100 100 100 100 100 100 100 100 100 100 100 100 100 100
100 100 100 100 100 100 100 100 100 100 100 100 100 100 100 100 100 100 100 100 100 100
100 100 100 100 100 100 100 100 100 100 100 100 100 100 100 100 100 100 100 100 100 100
100 100 100 100 98 100 100 100 100 100 100 100 100 100 100 100 100 100 100 74 60 100
100 100 100 100 100 100 100 100 100 100 100 100 100 100 100 100 100 100 100 89 78 100
100 100 100 100 100 100 100 100 100 100 100 100 100 100 100 100 100 100 100 59 95 100
100 100 100 100 100 100 100 100 100 100 100 100 100 100 100 100 100 100 100 25 45 75
100 100 100 100 100 100 100 100 100 100 100 100 100 100 100 100 100 100 95 55 98 100
100 100 100 100 100 100 100 100 100 100 100 100 100 100 100 100 100 100 100 100 100 100
100 100 100 100 100 100 100 100 100 100 100 100 100 100 100 100 100 100 100 100 100 100
100 100 100 100 94 100 100 100 100 100 100 100 100 100 100 100 100 100 100 100 100 100
100 100 100 100 100 100 100 100 100 100 100 100 100 100 100 100 100 100 100 100 100 100
100 100 100 100 100 100 100 100 100 100 100 100 100 100 100 100 100 100 100 100 100 100
100 100 100 100 100 100 100 100 97 100 92 100 100 100 100 100 100 100 100 100 100 100

GFSNIL_prec_cloud_126.txt.gz
Cloud_Cover
100 100 100 100 100 100 100 100 100 100 100 100 100 100 100 100 100 100 100 100 100 100
87 100 100 100 100 100 98 100 100 100 100 100 100 100 100 100 100 100 100 100 100 82
100 100 100 94 100 92 100 100 100 100 100 100 100 100 100 100 100 100 100 100 100 100
100 100 100 100 100 100 100 100 100 100 100 100 100 100 100 100 100 100 100 100 100 100
100 100 100 100 100 100 100 100 100 100 100 100 100 100 100 100 100 100 100 100 100 100
100 100 100 100 100 100 100 100 100 100 100 100 100 100 100 100 100 100 100 100 100 100
100 100 100 100 100 100 100 100 100 100 100 100 100 100 100 100 100 100 100 100 100 100
100 100 100 100 100 100 100 100 100 100 100 100 100 100 100 100 100 100 100 100 100 100
100 100 100 100 100 100 100 100 100 100 100 100 100 100 100 100 100 100 100 100 100 100
100 100 100 100 100 100 100 100 100 100 100 100 100 100 100 100 100 100 100 100 100 100
100 100 100 100 100 100 100 100 100 100 100 100 100 100 100 100 100 100 100 100 100 100
100 100 100 100 100 100 100 100 100 100 100 100 100 100 100 100 100 100 100 100 100 100
100 100 100 100 100 100 100 100 100 100 100 99 100 100 100 99 100 100 100 100 100 100
100 100 100 100 100 100 100 100 100 100 100 100 100 100 100 100 100 100 100 100 100 100

GFSNIL_prec_cloud_129.txt.gz
Cloud_Cover
100 100 100 100 100 100 100 100 100 100 100 87 100 100 100 100 98 100 100 100 100 100
100 100 100 100 100 100 100 100 100 100 100 100 100 100 100 100 100 100 100 100 100 100
100 100 100 100 100 100 100 100 100 100 100 98 56 100 100 100 100 100 100 100 100 100
100 100 100 100 100 100 100 100 100 100 100 100 87 99 89 100 100 100 100 100 100 100
100 100 100 100 100 100 100 100 100 100 100 100 100 100 100 100 100 100 100 100 100 100
100 100 100 100 95 89 100 100 100 100 100 100 100 100 100 100 100 100 100 100 100 100
100 100 100 81 79 82 99 100 94 85 100 100 100 100 100 100 100 100 100 100 100 100
100 69 46 87 100 100 99 100 100 100 100 100 100 100 100 100 100 100 100 100 100 100
100 100 100 100 100 100 100 100 100 100 100 100 100 100 100 100 100 100 100 100 100 100
100 100 100 100 100 100 100 100 100 100 100 100 100 100 100 98 100 100 100 100 100 100
100 100 100 100 100 100 100 100 100 100 100 100 100 100 100 100 97 100 92 100 100 100
100 100 100 100 100 100 100 100 100 100 100 100 100 100 100 100 86 91 67 100 100 100
100 100 100 100 100 100 100 100 100 100 100 100 100 100 100 100 100 100 100 100 100 100
100 100 100 100 100 100 99 100 100 97 98 95 96 100 100 100 100 100 100 100 100 100

GFSNIL_prec_cloud_132.txt.gz
Cloud_Cover
100 100 100 100 100 100 100 100 100 100 100 100 100 100 100 100 100 99 100 91 100 74
100 100 100 100 100 100 100 100 100 100 100 100 100 100 100 100 100 100 100 100 40 100
100 100 100 100 100 100 100 100 100 100 100 100 100 100 100 100 100 100 84 92 72 89
100 100 100 100 98 100 100 100 100 100 100 100 100 100 100 100 100 100 100 88 87 100
100 100 100 100 100 100 100 100 100 100 100 100 100 100 100 100 100 100 100 100 100 100
100 100 100 100 100 100 100 100 100 100 100 100 100 100 100 100 100 100 100 100 100 100
100 100 100 98 91 100 100 100 100 100 100 100 100 100 100 100 100 100 100 100 100 100
100 100 100 100 100 100 100 100 100 100 100 100 100 100 100 100 100 100 100 100 100 100
100 100 100 100 100 100 100 100 88 100 100 100 100 100 97 100 100 100 94 100 100 100
100 100 100 100 100 100 100 100 100 90 100 100 100 100 100 100 100 100 100 100 100 100
100 100 100 100 100 100 100 100 100 100 100 100 100 100 100 100 100 100 100 100 100 100
100 100 100 100 100 100 100 100 100 100 100 100 100 100 100 100 100 100 100 100 100 100
100 100 100 100 100 100 100 100 100 100 95 96 100 100 100 100 100 100 100 100 100 100
100 100 100 100 100 100 100 100 100 93 91 79 95 100 99 100 100 100 100 100 100 100